Location: Il Ritiro
(43.4167°N, 13.1333°E)
Time: 01:39:53
(UTC+00:00)

SeaSat 1 - Pass Details

Date: 05 July 2020
Orbit: 744 x 748 km, 108.0° (Epoch: 11 August)

Event Time Altitude Azimuth Distance (km) Brightness Sun altitude
Rises 23:43:52 0° 35° (NE) 3,198 6.7 -23.5°
Reaches altitude 10° 23:46:21 10° 45° (NE) 2,270 5.6 -23.5°
Maximum altitude 23:50:47 33° 109° (ESE) 1,238 3.4 -23.3°
Enters shadow 23:51:17 32° 122° (ESE) 1,255 3.4 -23.3°
